TOMORROW-S10

导读

TOMORROW-S10(NORAD编号67398)是美国Tomorrow.io公司气象卫星星座的成员之一,该星座计划于2023-2028年部署运行。卫星运行在高度约500公里的太阳同步轨道,核心任务是持续观测全球大气状态,为用户提供精准的气象数据产品,支撑天气预报、气候研究和极端天气预警等应用。作为商业气象组网的组成部分,TOMORROW-S10延续了星座对地球环境的持续监测能力,助力提升全球气象观测的时空分辨率,满足各行各业对精准气象信息的需求。

Basic Information
目录编号:
67398
目录名称:
TOMORROW-S10
国际标识:
2026-004AM
轨道中心:
EARTH
卫星名称:
TOMORROW-S10
卫星全名:
TOMORROW-S10
卫星状态:
在轨 (已飞行237 天)
发射日期:
2026-01-11 UTC
国别 :
美国 (US)
星等 :
--
Orbit Information
数据来源 国际轨道数据
星历时间: 2026-09-05T01:15:40+0800
16小时前
查看轨道信息
半长轴: 6883.577km
偏心率: 0.0007909
轨道倾角: 97.464°
近地点辐角 71.033°
升交点赤经 246.042°
平近点角 289.176°
近地点: 499.995km
远地点: 510.885km
周期: 94.729分钟
每日圈数: 15.201329
Detailed Information
使用方式:
暂无
2D Orbit Map
3D Orbit Map
Orbit Altitude Analysis Chart
Orbit Inclination Analysis Chart
Orbit Comprehensive Analysis Chart
View Comprehensive Chart
Conjunction Data List
Event ID Objects TCA Miss Dist (km) Collision Risk Probability Collision Risk Index (CRI) Action
CDM_260829-082106-312606-739822
2026-08-29T
08:21:41+0000
0.389 km
远距离
3.146551E-4 高风险 0.85
CDM_260907-023006-674306-739821
NUSAT-47 (66743)
2026-09-07T
02:30:13+0000
0.431 km
远距离
2.143807E-4 高风险 0.82
CDM_260905-203206-594506-739824
OBJECT A (65945)
2026-09-05T
20:32:27+0000
1.637 km
极远距离
4.956866E-6 低风险 0.49
CDM_260907-164106-455506-739821
2026-09-07T
16:41:41+0000
2.290 km
极远距离
1.909614E-6 低风险 0.41
CDM_260829-020806-324206-739823
HERMES-1 (63242)
2026-08-29T
02:08:07+0000
2.704 km
极远距离
1.379277E-6 低风险 0.38